Zurück zum Katalog

STARLINK-4284

AktivKommunikationVLEO
NORAD 53023·PAYLOAD·🇺🇸 United States

Gestartet Jul 7, 2022 von Cape Canaveral Space Force Station

Loading…

Nächste Überflüge (nächste 24 Stunden)

TLE

AktuellSource: CelesTrak SupGP

Epoche: Sep 15, 2026, 02:22 UTC

1 53023C 22076AP  26258.09909722  .00012157  00000+0  34778-3 0  2586
2 53023  53.1585 306.6494 0001215  95.5259 340.2510 15.35395092    16

Verfolge STARLINK-4284 in Echtzeit mit AllMySat

Download on the App Store